| time (UTC) | temp F | wind direction | speed knots | gust knots | rain 1hr in | rain 24hr in | rain mn in | humidity % | barometer mb |
| 20260504130812 | 64 | 234 | 3.5 | 6.1 | 0.00 | 0.00 | 0.00 | 62 | 1003.9 |
| 20260504130308 | 63 | 240 | 3.5 | 7.8 | 0.00 | 0.00 | 0.00 | 62 | 1003.7 |
| 20260504120226 | 59 | 224 | 3.5 | 5.2 | 0.00 | 0.00 | 0.00 | 64 | 1003.5 |
| 20260504110653 | 58 | 206 | 1.7 | 3.5 | 0.00 | 0.00 | 0.00 | 64 | 1003.2 |
| 20260504110149 | 58 | 186 | 1.7 | 2.6 | 0.00 | 0.00 | 0.00 | 63 | 1003.2 |
| 20260504100609 | 59 | 166 | 2.6 | 3.5 | 0.00 | 0.00 | 0.00 | 60 | 1003.2 |
| 20260504100107 | 59 | 210 | 2.6 | 6.1 | 0.00 | 0.00 | 0.00 | 60 | 1002.9 |
| 20260504082002 | 59 | 192 | 1.7 | 6.1 | 0.00 | 0.00 | 0.00 | 58 | 1003.1 |
| 20260504081501 | 59 | 226 | 3.5 | 6.1 | 0.00 | 0.00 | 0.00 | 58 | 1003.3 |
| 20260504080956 | 58 | 231 | 3.5 | 5.2 | 0.00 | 0.00 | 0.00 | 58 | 1003.2 |
| 20260504080452 | 58 | 178 | 3.5 | 6.1 | 0.00 | 0.00 | 0.00 | 58 | 1003.2 |
| 20260504050253 | 57 | 193 | 0.0 | 0.9 | 0.00 | 0.00 | 0.00 | 58 | 1004.9 |
| 20260504045750 | 57 | 199 | 0.9 | 0.9 | 0.00 | 0.00 | 0.00 | 58 | 1004.9 |
| 20260504045245 | 57 | 209 | 1.7 | 1.7 | 0.00 | 0.00 | 0.00 | 58 | 1004.9 |
| 20260504044743 | 57 | 197 | 0.9 | 1.7 | 0.00 | 0.00 | 0.00 | 59 | 1004.8 |
| 20260504044240 | 57 | 191 | 0.9 | 1.7 | 0.00 | 0.00 | 0.00 | 59 | 1005.0 |
| 20260504043737 | 56 | 192 | 0.0 | 0.0 | 0.00 | 0.00 | 0.00 | 60 | 1005.0 |
| 20260504043234 | 56 | 192 | 0.0 | 0.0 | 0.00 | 0.00 | 0.00 | 61 | 1004.9 |
| 20260504042732 | 55 | 192 | 0.0 | 0.0 | 0.00 | 0.00 | 0.00 | 62 | 1005.2 |
| 20260504042228 | 55 | 186 | 0.0 | 0.0 | 0.00 | 0.00 | 0.00 | 62 | 1005.1 |
| 20260504041724 | 56 | 186 | 0.0 | 0.0 | 0.00 | 0.00 | 0.00 | 61 | 1005.3 |
| 20260504041220 | 57 | 186 | 0.0 | 0.0 | 0.00 | 0.00 | 0.00 | 58 | 1005.2 |
| 20260504040716 | 57 | 186 | 0.0 | 0.0 | 0.00 | 0.00 | 0.00 | 57 | 1005.3 |
| 20260504040214 | 57 | 183 | 0.0 | 0.0 | 0.00 | 0.00 | 0.00 | 56 | 1005.3 |
| 20260504035710 | 57 | 181 | 0.0 | 0.0 | 0.00 | 0.00 | 0.00 | 56 | 1005.3 |
| 20260504035207 | 58 | 184 | 0.0 | 0.0 | 0.00 | 0.00 | 0.00 | 55 | 1005.1 |
| 20260504034704 | 58 | 183 | 0.0 | 0.0 | 0.00 | 0.00 | 0.00 | 54 | 1005.4 |
| 20260504034201 | 59 | 189 | 0.0 | 0.0 | 0.00 | 0.00 | 0.00 | 53 | 1005.3 |
| 20260504033659 | 60 | 186 | 0.0 | 0.9 | 0.00 | 0.00 | 0.00 | 52 | 1005.4 |
| 20260504033156 | 60 | 191 | 0.0 | 1.7 | 0.00 | 0.00 | 0.00 | 51 | 1005.2 |
| 20260504032653 | 61 | 191 | 0.0 | 0.9 | 0.00 | 0.00 | 0.00 | 51 | 1005.1 |
| 20260504032151 | 61 | 220 | 1.7 | 5.2 | 0.00 | 0.00 | 0.00 | 50 | 1005.0 |
| 20260504031647 | 61 | 203 | 0.9 | 5.2 | 0.00 | 0.00 | 0.00 | 50 | 1004.9 |
| 20260504031143 | 61 | 189 | 1.7 | 3.5 | 0.00 | 0.00 | 0.00 | 50 | 1004.9 |
| 20260504030641 | 61 | 194 | 1.7 | 5.2 | 0.00 | 0.00 | 0.00 | 49 | 1004.9 |
| 20260504030137 | 62 | 194 | 0.9 | 6.1 | 0.00 | 0.00 | 0.00 | 49 | 1004.7 |
| 20260504025634 | 62 | 240 | 5.2 | 6.1 | 0.00 | 0.00 | 0.00 | 49 | 1004.8 |
| 20260504025131 | 62 | 206 | 2.6 | 6.1 | 0.00 | 0.00 | 0.00 | 49 | 1004.7 |
| 20260504024628 | 62 | 236 | 5.2 | 7.0 | 0.00 | 0.00 | 0.00 | 49 | 1004.6 |
| 20260504024124 | 62 | 217 | 6.1 | 7.8 | 0.00 | 0.00 | 0.00 | 49 | 1004.8 |
| 20260504023621 | 62 | 231 | 2.6 | 6.1 | 0.00 | 0.00 | 0.00 | 49 | 1004.8 |
| 20260504023117 | 62 | 225 | 4.3 | 6.1 | 0.00 | 0.00 | 0.00 | 49 | 1004.8 |
| 20260504022613 | 62 | 188 | 0.9 | 2.6 | 0.00 | 0.00 | 0.00 | 49 | 1004.9 |
| 20260504022109 | 62 | 217 | 0.9 | 5.2 | 0.00 | 0.00 | 0.00 | 48 | 1004.9 |
| 20260504021608 | 62 | 217 | 2.6 | 2.6 | 0.00 | 0.00 | 0.00 | 48 | 1004.9 |
| 20260504021104 | 62 | 200 | 0.9 | 2.6 | 0.00 | 0.00 | 0.00 | 47 | 1005.1 |
| 20260504020601 | 62 | 206 | 1.7 | 1.7 | 0.00 | 0.00 | 0.00 | 47 | 1004.9 |
| 20260504020057 | 63 | 211 | 1.7 | 2.6 | 0.00 | 0.00 | 0.00 | 47 | 1005.3 |
| 20260504015554 | 63 | 212 | 1.7 | 3.5 | 0.00 | 0.00 | 0.00 | 46 | 1005.4 |
| 20260504015049 | 63 | 211 | 2.6 | 3.5 | 0.00 | 0.00 | 0.00 | 46 | 1005.2 |
| 20260504014546 | 63 | 197 | 0.9 | 0.9 | 0.00 | 0.00 | 0.00 | 46 | 1005.5 |
| 20260504014043 | 63 | 194 | 1.7 | 1.7 | 0.00 | 0.00 | 0.00 | 46 | 1005.4 |
| 20260504013541 | 63 | 215 | 2.6 | 2.6 | 0.00 | 0.00 | 0.00 | 46 | 1005.6 |
| 20260504013038 | 63 | 202 | 0.9 | 1.7 | 0.00 | 0.00 | 0.00 | 46 | 1005.3 |
| 20260504012535 | 63 | 200 | 1.7 | 1.7 | 0.00 | 0.00 | 0.00 | 46 | 1005.4 |
| 20260504012033 | 63 | 192 | 0.0 | 0.9 | 0.00 | 0.00 | 0.00 | 46 | 1005.2 |
| 20260504011530 | 64 | 208 | 1.7 | 3.5 | 0.00 | 0.00 | 0.00 | 44 | 1005.1 |
| 20260504011026 | 64 | 197 | 0.9 | 1.7 | 0.00 | 0.00 | 0.00 | 44 | 1005.0 |
| 20260504010521 | 64 | 210 | 1.7 | 1.7 | 0.00 | 0.00 | 0.00 | 44 | 1004.9 |
| 20260504010017 | 64 | 192 | 0.9 | 2.6 | 0.00 | 0.00 | 0.00 | 43 | 1005.0 |
| 20260504005514 | 65 | 243 | 1.7 | 2.6 | 0.00 | 0.00 | 0.00 | 43 | 1005.2 |
| 20260504005012 | 65 | 221 | 2.6 | 2.6 | 0.00 | 0.00 | 0.00 | 42 | 1005.2 |
| 20260504004509 | 65 | 195 | 2.6 | 2.6 | 0.00 | 0.00 | 0.00 | 42 | 1004.9 |
| 20260504004006 | 65 | 229 | 3.5 | 5.2 | 0.00 | 0.00 | 0.00 | 42 | 1004.8 |
| 20260504003502 | 66 | 215 | 2.6 | 3.5 | 0.00 | 0.00 | 0.00 | 41 | 1004.8 |
| 20260504002959 | 66 | 228 | 4.3 | 6.1 | 0.00 | 0.00 | 0.00 | 41 | 1004.7 |
| 20260504002456 | 66 | 211 | 2.6 | 6.1 | 0.00 | 0.00 | 0.00 | 41 | 1005.0 |
| 20260504001953 | 66 | 213 | 1.7 | 3.5 | 0.00 | 0.00 | 0.00 | 41 | 1004.9 |
| 20260504001451 | 66 | 176 | 3.5 | 7.0 | 0.00 | 0.00 | 0.00 | 41 | 1004.9 |
| 20260504000947 | 66 | 177 | 1.7 | 3.5 | 0.00 | 0.00 | 0.00 | 41 | 1005.0 |
| 20260504000444 | 66 | 225 | 3.5 | 6.1 | 0.00 | 0.00 | 0.00 | 40 | 1005.1 |
| 20260503235942 | 67 | 230 | 2.6 | 3.5 | 0.00 | 0.00 | 0.00 | 40 | 1005.3 |
| 20260503235439 | 67 | 220 | 4.3 | 6.1 | 0.00 | 0.00 | 0.00 | 40 | 1005.1 |
| 20260503234936 | 67 | 233 | 3.5 | 5.2 | 0.00 | 0.00 | 0.00 | 40 | 1005.1 |
| 20260503234434 | 67 | 209 | 3.5 | 7.0 | 0.00 | 0.00 | 0.00 | 40 | 1005.3 |
| 20260503233932 | 67 | 238 | 6.1 | 9.6 | 0.00 | 0.00 | 0.00 | 40 | 1005.4 |
| 20260503233428 | 67 | 225 | 2.6 | 5.2 | 0.00 | 0.00 | 0.00 | 40 | 1005.4 |
| 20260503232925 | 67 | 199 | 3.5 | 6.1 | 0.00 | 0.00 | 0.00 | 40 | 1005.3 |
| 20260503232422 | 67 | 207 | 2.6 | 3.5 | 0.00 | 0.00 | 0.00 | 40 | 1005.5 |
| 20260503231920 | 67 | 249 | 4.3 | 5.2 | 0.00 | 0.00 | 0.00 | 40 | 1005.6 |
| 20260503231417 | 68 | 178 | 1.7 | 6.1 | 0.00 | 0.00 | 0.00 | 39 | 1005.4 |
| 20260503230913 | 67 | 222 | 3.5 | 6.1 | 0.00 | 0.00 | 0.00 | 40 | 1005.7 |
| 20260503230409 | 68 | 221 | 3.5 | 6.1 | 0.00 | 0.00 | 0.00 | 39 | 1005.8 |
| 20260503225908 | 68 | 234 | 4.3 | 6.1 | 0.00 | 0.00 | 0.00 | 39 | 1005.8 |
| 20260503225403 | 67 | 234 | 5.2 | 7.8 | 0.00 | 0.00 | 0.00 | 39 | 1006.0 |
| 20260503224859 | 67 | 201 | 5.2 | 7.8 | 0.00 | 0.00 | 0.00 | 39 | 1006.0 |
| 20260503224357 | 68 | 189 | 2.6 | 5.2 | 0.00 | 0.00 | 0.00 | 40 | 1006.0 |
| 20260503223854 | 68 | 232 | 3.5 | 6.1 | 0.00 | 0.00 | 0.00 | 39 | 1006.1 |
| 20260503223352 | 68 | 224 | 3.5 | 7.8 | 0.00 | 0.00 | 0.00 | 40 | 1006.2 |
| 20260503222847 | 68 | 216 | 2.6 | 5.2 | 0.00 | 0.00 | 0.00 | 40 | 1006.3 |
| 20260503222347 | 68 | 215 | 4.3 | 6.1 | 0.00 | 0.00 | 0.00 | 39 | 1006.2 |
| 20260503221844 | 68 | 191 | 3.5 | 7.8 | 0.00 | 0.00 | 0.00 | 39 | 1006.4 |
| 20260503221343 | 68 | 215 | 2.6 | 5.2 | 0.00 | 0.00 | 0.00 | 39 | 1006.5 |
| 20260503220838 | 68 | 237 | 6.1 | 8.7 | 0.00 | 0.00 | 0.00 | 38 | 1006.5 |
| 20260503220335 | 68 | 207 | 3.5 | 7.8 | 0.00 | 0.00 | 0.00 | 38 | 1006.7 |
| 20260503215832 | 68 | 221 | 3.5 | 6.1 | 0.00 | 0.00 | 0.00 | 38 | 1006.9 |
| 20260503215329 | 68 | 221 | 4.3 | 6.1 | 0.00 | 0.00 | 0.00 | 39 | 1006.7 |
| 20260503214827 | 68 | 234 | 9.6 | 11.3 | 0.00 | 0.00 | 0.00 | 38 | 1006.8 |
| 20260503214324 | 68 | 189 | 5.2 | 8.7 | 0.00 | 0.00 | 0.00 | 38 | 1006.8 |
| 20260503213821 | 68 | 186 | 4.3 | 7.0 | 0.00 | 0.00 | 0.00 | 37 | 1006.8 |
| 20260503213319 | 69 | 241 | 6.1 | 7.0 | 0.00 | 0.00 | 0.00 | 38 | 1006.9 |
| 20260503212815 | 68 | 181 | 4.3 | 6.1 | 0.00 | 0.00 | 0.00 | 37 | 1007.1 |
| 20260503212313 | 69 | 208 | 4.3 | 7.0 | 0.00 | 0.00 | 0.00 | 37 | 1007.3 |
| 20260503211810 | 69 | 228 | 1.7 | 7.0 | 0.00 | 0.00 | 0.00 | 38 | 1007.2 |
| 20260503211307 | 69 | 240 | 3.5 | 5.2 | 0.00 | 0.00 | 0.00 | 37 | 1007.4 |
| 20260503210807 | 68 | 233 | 5.2 | 7.8 | 0.00 | 0.00 | 0.00 | 37 | 1007.5 |
| 20260503210305 | 68 | 216 | 4.3 | 8.7 | 0.00 | 0.00 | 0.00 | 37 | 1007.6 |
| 20260503205800 | 69 | 243 | 4.3 | 8.7 | 0.00 | 0.00 | 0.00 | 37 | 1007.8 |
| 20260503205257 | 68 | 217 | 1.7 | 6.1 | 0.00 | 0.00 | 0.00 | 37 | 1007.7 |
| 20260503204753 | 68 | 238 | 3.5 | 8.7 | 0.00 | 0.00 | 0.00 | 37 | 1007.9 |
| 20260503204251 | 68 | 223 | 6.1 | 7.8 | 0.00 | 0.00 | 0.00 | 37 | 1007.9 |
| 20260503203748 | 69 | 177 | 2.6 | 7.8 | 0.00 | 0.00 | 0.00 | 36 | 1007.9 |
| 20260503203245 | 69 | 219 | 3.5 | 6.1 | 0.00 | 0.00 | 0.00 | 37 | 1008.1 |
| 20260503202742 | 68 | 201 | 1.7 | 7.8 | 0.00 | 0.00 | 0.00 | 37 | 1008.0 |
| 20260503202240 | 68 | 203 | 1.7 | 6.1 | 0.00 | 0.00 | 0.00 | 36 | 1008.1 |
| 20260503201738 | 69 | 220 | 5.2 | 7.8 | 0.00 | 0.00 | 0.00 | 35 | 1008.4 |
| 20260503201235 | 69 | 180 | 1.7 | 6.1 | 0.00 | 0.00 | 0.00 | 35 | 1008.5 |
| 20260503200731 | 69 | 189 | 0.0 | 3.5 | 0.00 | 0.00 | 0.00 | 38 | 1008.5 |
| 20260503200228 | 68 | 209 | 3.5 | 5.2 | 0.00 | 0.00 | 0.00 | 36 | 1008.6 |
| 20260503195725 | 69 | 195 | 2.6 | 8.7 | 0.00 | 0.00 | 0.00 | 36 | 1008.9 |
| 20260503195222 | 68 | 240 | 4.3 | 7.0 | 0.00 | 0.00 | 0.00 | 37 | 1008.9 |
| 20260503194719 | 68 | 187 | 5.2 | 6.1 | 0.00 | 0.00 | 0.00 | 37 | 1009.0 |
| 20260503194215 | 68 | 205 | 2.6 | 7.0 | 0.00 | 0.00 | 0.00 | 37 | 1009.0 |
| 20260503193711 | 68 | 231 | 4.3 | 7.0 | 0.00 | 0.00 | 0.00 | 37 | 1009.3 |
| 20260503193207 | 68 | 198 | 4.3 | 8.7 | 0.00 | 0.00 | 0.00 | 36 | 1009.4 |
| 20260503192703 | 68 | 242 | 2.6 | 5.2 | 0.00 | 0.00 | 0.00 | 36 | 1009.6 |
| 20260503192158 | 68 | 228 | 3.5 | 5.2 | 0.00 | 0.00 | 0.00 | 37 | 1009.5 |
| 20260503191655 | 67 | 197 | 2.6 | 6.1 | 0.00 | 0.00 | 0.00 | 37 | 1009.7 |
| 20260503191152 | 66 | 179 | 2.6 | 7.8 | 0.00 | 0.00 | 0.00 | 37 | 1009.7 |
| 20260503190649 | 67 | 222 | 7.8 | 11.3 | 0.00 | 0.00 | 0.00 | 37 | 1010.0 |
| 20260503190146 | 68 | 222 | 3.5 | 5.2 | 0.00 | 0.00 | 0.00 | 37 | 1009.9 |
| 20260503185643 | 67 | 214 | 3.5 | 7.8 | 0.00 | 0.00 | 0.00 | 38 | 1009.9 |
| 20260503185138 | 67 | 231 | 5.2 | 8.7 | 0.00 | 0.00 | 0.00 | 37 | 1010.3 |
| 20260503184633 | 66 | 180 | 0.9 | 6.1 | 0.00 | 0.00 | 0.00 | 38 | 1010.1 |
| 20260503184130 | 66 | 224 | 5.2 | 7.8 | 0.00 | 0.00 | 0.00 | 37 | 1010.1 |
| 20260503183626 | 66 | 222 | 3.5 | 7.8 | 0.00 | 0.00 | 0.00 | 37 | 1010.3 |
| 20260503183124 | 67 | 215 | 0.9 | 2.6 | 0.00 | 0.00 | 0.00 | 39 | 1010.2 |
| 20260503182622 | 66 | 224 | 6.1 | 7.8 | 0.00 | 0.00 | 0.00 | 38 | 1010.3 |
| 20260503182120 | 66 | 219 | 3.5 | 6.1 | 0.00 | 0.00 | 0.00 | 37 | 1010.4 |
| 20260503181617 | 66 | 193 | 0.0 | 3.5 | 0.00 | 0.00 | 0.00 | 40 | 1010.2 |
| 20260503181113 | 66 | 225 | 5.2 | 9.6 | 0.00 | 0.00 | 0.00 | 39 | 1010.4 |
| 20260503180610 | 66 | 214 | 4.3 | 8.7 | 0.00 | 0.00 | 0.00 | 39 | 1010.4 |
| 20260503180108 | 65 | 259 | 7.0 | 9.6 | 0.00 | 0.00 | 0.00 | 39 | 1010.3 |
| 20260503175605 | 65 | 185 | 0.9 | 2.6 | 0.00 | 0.00 | 0.00 | 41 | 1010.5 |
| 20260503175102 | 64 | 207 | 2.6 | 3.5 | 0.00 | 0.00 | 0.00 | 41 | 1010.6 |
| 20260503174559 | 66 | 234 | 6.1 | 7.8 | 0.00 | 0.00 | 0.00 | 39 | 1011.0 |
| 20260503174055 | 65 | 245 | 5.2 | 5.2 | 0.00 | 0.00 | 0.00 | 39 | 1010.9 |
| 20260503173550 | 64 | 189 | 3.5 | 6.1 | 0.00 | 0.00 | 0.00 | 39 | 1010.8 |
| 20260503173047 | 64 | 207 | 0.0 | 3.5 | 0.00 | 0.00 | 0.00 | 40 | 1011.1 |
| 20260503172545 | 64 | 222 | 5.2 | 7.8 | 0.00 | 0.00 | 0.00 | 41 | 1011.2 |
| 20260503172042 | 64 | 189 | 3.5 | 5.2 | 0.00 | 0.00 | 0.00 | 41 | 1011.1 |
| 20260503171538 | 65 | 187 | 0.0 | 2.6 | 0.00 | 0.00 | 0.00 | 41 | 1011.2 |
| 20260503171036 | 64 | 83 | 0.0 | 1.7 | 0.00 | 0.00 | 0.00 | 40 | 1011.3 |
| 20260503170532 | 63 | 195 | 0.9 | 3.5 | 0.00 | 0.00 | 0.00 | 40 | 1011.4 |
| 20260503150924 | 59 | 194 | 1.7 | 2.6 | 0.00 | 0.00 | 0.00 | 44 | 1012.2 |
| 20260503150421 | 58 | 239 | 4.3 | 6.1 | 0.00 | 0.00 | 0.00 | 46 | 1012.3 |